Skip Page Navigation
NASA JPL Caltech
NASA Logo - Jet Propulsion Laboratory + View the NASA Portal
+ Center for Near-Earth Object Studies
JPL Home Earth Solar System Stars & Galaxies Technology
JPL Solar System Dynamics
BODIES ORBITS EPHEMERIDES TOOLS PHYSICAL DATA DISCOVERY FAQ SITE MAP

Significant website upgrade scheduled for September 27. More details available here.

JPL Small-Body Database Browser
Search: [ help ]  
37510 (3235 T-2)
Classification: Main-belt Asteroid          SPK-ID: 2037510
Ephemeris | Orbit Diagram | Orbital Elements | Mission Design | Physical Parameters | Discovery Circumstances | Close-Approach Data ]

[ show orbit diagram ]
Orbital Elements at Epoch 2459396.5 (2021-Jul-01.0) TDB
Reference: JPL 23 (heliocentric ecliptic J2000)
 Element Value Uncertainty (1-sigma)   Units 
e .07708261052080208 3.4235e-08  
a 3.084148258684702 2.0799e-08 au
q 2.846414059672099 1.1355e-07 au
i 6.117205886256269 4.9277e-06 deg
node 46.23702577501029 3.5044e-05 deg
peri 244.8876524386313 4.8526e-05 deg
M 356.8929476492177 3.2786e-05 deg
tp 2459413.574475323679
(2021-Jul-18.07447532)
0.00018017 TDB
period 1978.341663595318
5.42
2.0012e-05
5.479e-08
d
yr
n .1819705901283795 1.8408e-09 deg/d
Q 3.321882457697305 2.2402e-08 au
  Orbit Determination Parameters
   # obs. used (total)      789  
   data-arc span      17491 days (47.89 yr)  
   first obs. used      1973-09-19  
   last obs. used      2021-08-09  
   planetary ephem.      DE441  
   SB-pert. ephem.      SB441-N16  
   condition code      0  
   norm. resid. RMS      .56292  
   source      ORB  
   producer      Otto Matic  
   solution date      2021-Aug-25 00:28:26  

Additional Information
 Earth MOID = 1.83699 au 
 Jupiter MOID = 1.81123 au 
 T_jup = 3.214 
[ hide covariance matrix ]
Orbital Elements at Epoch 2457497.5 (2016-Apr-19.0) TDB
Reference: JPL 23 (heliocentric ecliptic J2000)
 Element Value Uncertainty (1-sigma)   Units 
e .0752647497913614 3.4246e-08  
q 2.852037229242456 1.135e-07 au
tp 2457434.113032255478
(2016-Feb-15.61303226)
0.00018517 TDB
node 46.26883260790351 3.503e-05 deg
peri 244.5985559083196 4.9057e-05 deg
i 6.118185485498886 4.9281e-06 deg
  Orbit Determination Parameters
   # obs. used (total)      789  
   data-arc span      17491 days (47.89 yr)  
   first obs. used      1973-09-19  
   last obs. used      2021-08-09  
   planetary ephem.      DE441  
   SB-pert. ephem.      SB441-N16  
   condition code      0  
   norm. resid. RMS      .56292  
   source      ORB  
   producer      Otto Matic  
   solution date      2021-Aug-25 00:28:26  

Additional Information
 Jupiter MOID = 1.81123 au 
 T_jup = 3.214 
Orbit Covariance (6×6)
  e q tp node peri i
e 1.172820910208917E-15 -3.835244053984989E-15 -1.162165206693846E-13 2.813070285291341E-15 1.56611639141798E-15 -1.367064608582417E-15
q -3.835244053984989E-15 1.288239378640368E-14 2.611695208400776E-14 -1.362561254475004E-14 -6.534535350550718E-14 5.554110136460353E-15
tp -1.162165206693846E-13 2.611695208400776E-14 3.428819022621638E-8 -7.237009977686623E-12 6.371612291872963E-9 -2.147042941729299E-12
node 2.813070285291341E-15 -1.362561254475004E-14 -7.237009977686623E-12 1.227095562481164E-9 -1.221472189380065E-9 -3.110311528825699E-11
peri 1.56611639141798E-15 -6.534535350550718E-14 6.371612291872963E-9 -1.221472189380065E-9 2.406559964268285E-9 3.055946821521221E-11
i -1.367064608582417E-15 5.554110136460353E-15 -2.147042941729299E-12 -3.110311528825699E-11 3.055946821521221E-11 2.428590736806326E-11

Ephemeris | Orbit Diagram | Orbital Elements | Mission Design | Physical Parameters | Discovery Circumstances | Close-Approach Data ]

Physical Parameter Table
Parameter Symbol Value Units Sigma Reference Notes
absolute magnitude H 14.85   n/a MPO636610  

37510 (3235 T-2)          Discovered 1973-Sep-30 by van Houten, C. J., van Houten-Groeneveld, I., Gehrels, T. at Palomar
Reference: 20020227/Numbers.arcLast Updated: 2004-04-19

[ hide close-approach data ]
Close-Approach Data   ...sorted by Date/Time (TDB)
Date/Time (TDB) Time Uncertainty
(days_HH:MM)
Body Nominal Distance (au) Minimum Distance (au) Maximum Distance (au) V-relative (km/s) V-infinity (km/s) JD (TDB) Time Uncertainty (minutes) Semi-major axis (km) Semi-minor axis (km) range-LOV angle (deg) N-sigma BP Orbit Ref. Reference Modified
1942-Dec-02 17:32 00:02 Jupiter 1.94589709801436 1.94589633462843 1.94589786140096 2.82853133862228 2.67020912399714 2430696.230683925 2.31988636577071 77.3477890045861 12.2385909776872 -66.60331863979 3798199.80175216 T 23 CATAB v2.0g-lin.ifort 2021-Aug-25 00:28:28 2021-Aug-25 00:28
1952-Sep-25 07:56 00:02 Jupiter 1.80852983398147 1.80852936222566 1.80853030573748 3.19305076318054 3.04284009945135 2434280.830829150 1.95670372824 74.9444502959409 13.4621861858766 -82.3853050873824 2551344.34139764 T 23 CATAB v2.0g-lin.ifort 2021-Aug-25 00:28:28 2021-Aug-25 00:28
2012-Jul-18 23:06 < 00:01 Jupiter 1.7997820266495 1.79978162293822 1.79978243036089 2.99732947941223 2.83597142135905 2456127.462525287 0.235537522598404 50.3408836343118 10.5990235621947 -79.2879885316411 2870935.80596214 T 23 CATAB v2.0g-lin.ifort 2021-Aug-25 00:28:28 2021-Aug-25 00:28
2072-May-13 14:54 00:02 Jupiter 1.82132222253172 1.82132177388974 1.82132267117392 2.83009277993184 2.66069669482135 2477976.120666758 1.82531767466086 55.0190575439688 10.7878186542636 -72.6769816316072 3086035.5095359 T 23 CATAB v2.0g-lin.ifort 2021-Aug-25 00:28:28 2021-Aug-25 00:28
2082-Mar-17 01:03 00:02 Jupiter 1.94595978230337 1.94595891428634 1.94596065032239 3.82687983458509 3.71139657595562 2481570.543777468 2.07027790993218 125.254834207288 19.5639658952556 -75.0172207000824 3134400.7840491 T 23 CATAB v2.0g-lin.ifort 2021-Aug-25 00:28:28 2021-Aug-25 00:28
2132-Mar-11 18:34 00:04 Jupiter 1.86816531240319 1.86816441550287 1.86816620930489 2.7296660065374 2.55817911916616 2499827.273885204 3.72336816376075 102.55475017306 11.6965345278001 -65.9120859045861 3529267.82257026 T 23 CATAB v2.0g-lin.ifort 2021-Aug-25 00:28:28 2021-Aug-25 00:28
2142-Jan-07 10:23 00:04 Jupiter 1.87851368873851 1.87851258274148 1.87851479474185 3.56378717195555 3.43493497370278 2503415.932539750 3.92973842985426 200.091692859222 16.7866465539146 -78.046277247847 2802559.63310575 T 23 CATAB v2.0g-lin.ifort 2021-Aug-25 00:28:28 2021-Aug-25 00:28
2192-Jan-09 08:50 00:06 Jupiter 1.93213580227297 1.93213423344817 1.9321373711004 2.74340028767072 2.5786569896051 2521679.868056620 5.58863525355748 145.767581104223 12.6836987476556 -63.9986671934581 3310386.7578672 T 23 CATAB v2.0g-lin.ifort 2021-Aug-25 00:28:28 2021-Aug-25 00:28

Alternate Designations
 3235 T-2 = 2000 SH365 
Ephemeris | Orbit Diagram | Orbital Elements | Mission Design | Physical Parameters | Discovery Circumstances | Close-Approach Data ]
ABOUT SSD CREDITS/AWARDS PRIVACY/COPYRIGHT GLOSSARY LINKS
FirstGov 2021-Sep-26 01:54 UT
(server date/time)  
NASA Home Page
Site Manager:   Ryan S. Park
Webmaster  Alan B. Chamberlin